FIN1990 UUEE-EFHK

Flight info

Callsign FIN1990
Flight time 1h 38m
Altitude 40000
Route TOKNU3H TOKNU L4 NUDKO T561 ADOGI L254 PETAP T562 RATLA/N0500F400 DCT ROKVI Y358 VEPIN
Aircraft B748/H-SDE3FGHIM1M2RWXY/LB1

Departure

Time 2026-04-25 09:18
Airport Sheremetyevo International Airport (UUEE)

Arrival

Time 2026-04-25 10:57
Airport Helsinki Vantaa Airport (EFHK)
Time Latitude Longitude Altitude Speed Heading
2026-04-25 08:57 55.96566 37.40366 635 ft 0 kts 104°
2026-04-25 09:04 55.96569 37.40343 639 ft 4 kts 103°
2026-04-25 09:05 55.96574 37.40297 635 ft 4 kts 98°
2026-04-25 09:05 55.96576 37.40254 635 ft 3 kts 90°
2026-04-25 09:05 55.96576 37.40229 635 ft 3 kts 79°
2026-04-25 09:05 55.96573 37.40207 636 ft 2 kts 58°
2026-04-25 09:06 55.96565 37.40190 645 ft 2 kts 16°
2026-04-25 09:06 55.96554 37.40185 640 ft 2 kts 354°
2026-04-25 09:06 55.96543 37.40189 640 ft 2 kts 343°
2026-04-25 09:06 55.96536 37.40193 640 ft 0 kts 338°
2026-04-25 09:10 55.96547 37.40185 637 ft 7 kts 338°
2026-04-25 09:10 55.96620 37.40151 641 ft 14 kts 346°
2026-04-25 09:11 55.96732 37.40212 637 ft 5 kts 67°
2026-04-25 09:11 55.96745 37.40272 637 ft 6 kts 70°
2026-04-25 09:11 55.96760 37.40373 639 ft 12 kts 76°
2026-04-25 09:12 55.96789 37.40576 637 ft 22 kts 76°
2026-04-25 09:12 55.96834 37.40887 638 ft 30 kts 75°
2026-04-25 09:12 55.96894 37.41293 641 ft 37 kts 75°
2026-04-25 09:12 55.96971 37.41781 643 ft 44 kts 74°
2026-04-25 09:13 55.97054 37.42327 640 ft 46 kts 75°
2026-04-25 09:13 55.97136 37.42880 638 ft 47 kts 75°
2026-04-25 09:13 55.97221 37.43451 639 ft 46 kts 75°
2026-04-25 09:13 55.97301 37.43988 640 ft 44 kts 75°
2026-04-25 09:14 55.97383 37.44368 643 ft 19 kts 40°
2026-04-25 09:14 55.97500 37.44388 641 ft 16 kts 343°
2026-04-25 09:14 55.97545 37.44278 644 ft 8 kts 276°
2026-04-25 09:14 55.97540 37.44190 639 ft 9 kts 260°
2026-04-25 09:15 55.97531 37.44127 641 ft 0 kts 255°
2026-04-25 09:15 55.97531 37.44123 640 ft 1 kts 255°
2026-04-25 09:15 55.97529 37.44111 641 ft 1 kts 255°
2026-04-25 09:15 55.97525 37.44087 637 ft 2 kts 254°
2026-04-25 09:16 55.97519 37.44051 639 ft 4 kts 254°
2026-04-25 09:16 55.97515 37.44024 641 ft 3 kts 254°
2026-04-25 09:16 55.97511 37.44002 638 ft 0 kts 254°
2026-04-25 09:16 55.97511 37.43996 636 ft 1 kts 254°
2026-04-25 09:17 55.97476 37.43769 640 ft 31 kts 255°
2026-04-25 09:17 55.97403 37.43257 640 ft 54 kts 256°
2026-04-25 09:17 55.97286 37.42500 645 ft 73 kts 254°
2026-04-25 09:18 55.97119 37.41468 636 ft 113 kts 253°
2026-04-25 09:18 55.96881 37.39701 667 ft 173 kts 259°
2026-04-25 09:18 55.96523 37.37669 1276 ft 172 kts 250°
2026-04-25 09:18 55.96196 37.35518 1681 ft 186 kts 259°
2026-04-25 09:19 55.95926 37.33252 2238 ft 188 kts 259°
2026-04-25 09:19 55.95657 37.30964 2841 ft 189 kts 259°
2026-04-25 09:19 55.95386 37.28653 3411 ft 190 kts 259°
2026-04-25 09:19 55.95103 37.26333 3980 ft 192 kts 258°
2026-04-25 09:20 55.94823 37.23958 4408 ft 201 kts 259°
2026-04-25 09:20 55.94525 37.21469 4855 ft 208 kts 256°
2026-04-25 09:20 55.93941 37.19087 5318 ft 212 kts 245°
2026-04-25 09:20 55.93388 37.16639 5819 ft 215 kts 253°
2026-04-25 09:21 55.92979 37.14027 6249 ft 222 kts 256°
2026-04-25 09:21 55.92599 37.11335 6721 ft 226 kts 256°
2026-04-25 09:21 55.92194 37.08618 7228 ft 227 kts 255°
2026-04-25 09:21 55.91775 37.05893 7730 ft 229 kts 255°
2026-04-25 09:22 55.91466 37.03120 8189 ft 230 kts 272°
2026-04-25 09:22 55.91868 37.00367 8637 ft 233 kts 298°
2026-04-25 09:22 55.92951 36.98218 9084 ft 236 kts 322°
2026-04-25 09:22 55.94293 36.96533 9575 ft 235 kts 323°
2026-04-25 09:23 55.95647 36.94891 10048 ft 235 kts 323°
2026-04-25 09:23 55.96993 36.93229 10487 ft 235 kts 322°
2026-04-25 09:23 55.98336 36.91548 10904 ft 236 kts 322°
2026-04-25 09:23 55.99732 36.90003 11304 ft 239 kts 337°
2026-04-25 09:24 56.01314 36.89039 11703 ft 240 kts 340°
2026-04-25 09:24 56.02907 36.88141 12128 ft 240 kts 339°
2026-04-25 09:24 56.04498 36.87209 12509 ft 240 kts 339°
2026-04-25 09:24 56.06084 36.86256 12892 ft 241 kts 339°
2026-04-25 09:25 56.07672 36.85303 13251 ft 241 kts 338°
2026-04-25 09:25 56.09137 36.83908 13540 ft 239 kts 314°
2026-04-25 09:25 56.10351 36.81878 13896 ft 238 kts 314°
2026-04-25 09:25 56.11551 36.79838 14245 ft 238 kts 314°
2026-04-25 09:26 56.12759 36.77810 14582 ft 238 kts 315°
2026-04-25 09:26 56.13976 36.75783 14892 ft 239 kts 315°
2026-04-25 09:26 56.15192 36.73751 15205 ft 239 kts 315°
2026-04-25 09:26 56.16408 36.71715 15513 ft 240 kts 315°
2026-04-25 09:27 56.17626 36.69672 15804 ft 240 kts 315°
2026-04-25 09:27 56.18851 36.67617 16108 ft 241 kts 315°
2026-04-25 09:27 56.20074 36.65564 16381 ft 241 kts 315°
2026-04-25 09:27 56.21300 36.63504 16650 ft 242 kts 315°
2026-04-25 09:28 56.22530 36.61435 16913 ft 242 kts 315°
2026-04-25 09:28 56.23757 36.59366 17171 ft 242 kts 315°
2026-04-25 09:28 56.24989 36.57287 17432 ft 243 kts 315°
2026-04-25 09:28 56.26224 36.55202 17649 ft 243 kts 315°
2026-04-25 09:29 56.27457 36.53116 17899 ft 244 kts 315°
2026-04-25 09:29 56.28694 36.51024 18112 ft 246 kts 315°
2026-04-25 09:29 56.29965 36.48868 18114 ft 256 kts 315°
2026-04-25 09:29 56.31285 36.46630 18116 ft 264 kts 315°
2026-04-25 09:30 56.32644 36.44325 18118 ft 271 kts 315°
2026-04-25 09:30 56.34034 36.41963 18118 ft 278 kts 315°
2026-04-25 09:30 56.35456 36.39546 18118 ft 284 kts 315°
2026-04-25 09:30 56.36763 36.36871 18127 ft 285 kts 304°
2026-04-25 09:31 56.37906 36.33944 18111 ft 284 kts 303°
2026-04-25 09:31 56.39039 36.31022 18105 ft 284 kts 304°
2026-04-25 09:31 56.40180 36.28111 18107 ft 284 kts 304°
2026-04-25 09:31 56.41322 36.25206 18109 ft 284 kts 304°
2026-04-25 09:32 56.42464 36.22293 18107 ft 284 kts 304°
2026-04-25 09:32 56.43601 36.19381 18110 ft 284 kts 304°
2026-04-25 09:32 56.44738 36.16464 18107 ft 284 kts 304°
2026-04-25 09:32 56.45876 36.13547 18108 ft 284 kts 304°
2026-04-25 09:33 56.47013 36.10627 18104 ft 284 kts 303°
2026-04-25 09:33 56.48149 36.07706 18107 ft 284 kts 303°
2026-04-25 09:33 56.49282 36.04790 18106 ft 283 kts 303°
2026-04-25 09:33 56.50417 36.01865 18106 ft 284 kts 303°
2026-04-25 09:34 56.51549 35.98945 18107 ft 284 kts 303°
2026-04-25 09:34 56.52684 35.96012 18135 ft 285 kts 303°
2026-04-25 09:34 56.53822 35.93067 18249 ft 285 kts 303°
2026-04-25 09:34 56.54963 35.90114 18371 ft 286 kts 303°
2026-04-25 09:35 56.56105 35.87152 18443 ft 288 kts 303°
2026-04-25 09:35 56.57229 35.84235 18680 ft 283 kts 303°
2026-04-25 09:35 56.58341 35.81347 19027 ft 274 kts 303°
2026-04-25 09:35 56.59417 35.78548 19372 ft 267 kts 303°
2026-04-25 09:36 56.60462 35.75825 19705 ft 260 kts 303°
2026-04-25 09:36 56.61482 35.73165 20034 ft 254 kts 303°
2026-04-25 09:36 56.62495 35.70519 20331 ft 259 kts 303°
2026-04-25 09:36 56.63549 35.67758 20637 ft 274 kts 303°
2026-04-25 09:37 56.64669 35.64828 20948 ft 290 kts 303°
2026-04-25 09:37 56.65849 35.61736 21291 ft 306 kts 303°
2026-04-25 09:37 56.67095 35.58470 21647 ft 322 kts 303°
2026-04-25 09:37 56.68397 35.55049 22011 ft 337 kts 303°
2026-04-25 09:38 56.69762 35.51457 22378 ft 353 kts 303°
2026-04-25 09:38 56.71190 35.47696 22741 ft 368 kts 303°
2026-04-25 09:38 56.72673 35.43783 23115 ft 383 kts 303°
2026-04-25 09:38 56.74214 35.39708 23480 ft 398 kts 303°
2026-04-25 09:39 56.75811 35.35479 23846 ft 412 kts 303°
2026-04-25 09:39 56.77459 35.31108 24356 ft 422 kts 303°
2026-04-25 09:39 56.79139 35.26645 24894 ft 431 kts 303°
2026-04-25 09:40 56.82591 35.17446 25953 ft 448 kts 303°
2026-04-25 09:40 56.84364 35.12708 26484 ft 456 kts 303°
2026-04-25 09:40 56.86165 35.07885 26995 ft 463 kts 303°
2026-04-25 09:40 56.87993 35.02980 27512 ft 471 kts 303°
2026-04-25 09:41 56.89838 34.98062 28017 ft 464 kts 306°
2026-04-25 09:41 56.91988 34.93693 28521 ft 464 kts 317°
2026-04-25 09:41 56.94533 34.90043 29038 ft 465 kts 322°
2026-04-25 09:41 56.97150 34.86556 29535 ft 466 kts 323°
2026-04-25 09:42 56.99790 34.83076 30040 ft 467 kts 323°
2026-04-25 09:42 57.02427 34.79581 30517 ft 468 kts 323°
2026-04-25 09:42 57.05057 34.76062 31016 ft 468 kts 322°
2026-04-25 09:42 57.07686 34.72540 31503 ft 467 kts 323°
2026-04-25 09:43 57.10314 34.69030 31985 ft 467 kts 323°
2026-04-25 09:43 57.12938 34.65519 32487 ft 466 kts 322°
2026-04-25 09:43 57.15557 34.61999 32953 ft 465 kts 322°
2026-04-25 09:43 57.18159 34.58495 33436 ft 463 kts 322°
2026-04-25 09:44 57.20753 34.54999 33914 ft 460 kts 322°
2026-04-25 09:44 57.23336 34.51514 34393 ft 458 kts 322°
2026-04-25 09:44 57.25898 34.48048 34865 ft 455 kts 322°
2026-04-25 09:44 57.28441 34.44602 35331 ft 452 kts 322°
2026-04-25 09:45 57.30962 34.41179 35803 ft 447 kts 322°
2026-04-25 09:45 57.33458 34.37786 36250 ft 443 kts 322°
2026-04-25 09:45 57.35947 34.34396 36457 ft 445 kts 322°
2026-04-25 09:45 57.38441 34.30991 36692 ft 445 kts 322°
2026-04-25 09:46 57.40935 34.27584 36902 ft 446 kts 322°
2026-04-25 09:46 57.43429 34.24168 37143 ft 446 kts 322°
2026-04-25 09:46 57.45925 34.20746 37387 ft 446 kts 322°
2026-04-25 09:46 57.47575 34.18479 37534 ft 446 kts 322°
2026-04-25 09:47 57.50064 34.15055 37769 ft 446 kts 322°
2026-04-25 09:47 57.52558 34.11619 38005 ft 445 kts 322°
2026-04-25 09:47 57.55842 34.07085 38316 ft 445 kts 322°
2026-04-25 09:47 57.57519 34.04766 38470 ft 444 kts 322°
2026-04-25 09:48 57.60800 34.00219 38794 ft 444 kts 322°
2026-04-25 09:48 57.62471 33.97900 38944 ft 443 kts 322°
2026-04-25 09:48 57.64955 33.94448 39171 ft 442 kts 322°
2026-04-25 09:48 57.67414 33.91024 39402 ft 440 kts 322°
2026-04-25 09:49 57.69863 33.87608 39629 ft 439 kts 322°
2026-04-25 09:49 57.72304 33.84198 39858 ft 437 kts 322°
2026-04-25 09:49 57.74736 33.80794 39995 ft 438 kts 322°
2026-04-25 09:49 57.77187 33.77357 39993 ft 441 kts 322°
2026-04-25 09:50 57.82141 33.70393 39997 ft 449 kts 322°
2026-04-25 09:50 57.87180 33.63284 40014 ft 457 kts 322°
2026-04-25 09:51 57.92285 33.56056 40017 ft 467 kts 322°
2026-04-25 09:51 57.97519 33.48619 40016 ft 474 kts 322°
2026-04-25 09:52 58.02795 33.41095 40011 ft 475 kts 322°
2026-04-25 09:52 58.08062 33.33553 40009 ft 475 kts 321°
2026-04-25 09:53 58.13326 33.25987 40008 ft 475 kts 321°
2026-04-25 09:53 58.18199 33.17577 40003 ft 475 kts 313°
2026-04-25 09:54 58.22815 33.08655 40007 ft 474 kts 313°
2026-04-25 09:54 58.27443 32.99744 40007 ft 474 kts 313°
2026-04-25 09:55 58.32058 32.90783 40008 ft 474 kts 313°
2026-04-25 09:55 58.36664 32.81825 40008 ft 474 kts 313°
2026-04-25 09:56 58.41262 32.72835 40008 ft 473 kts 313°
2026-04-25 09:56 58.45854 32.63828 40008 ft 473 kts 313°
2026-04-25 09:57 58.50433 32.54808 40008 ft 473 kts 313°
2026-04-25 09:57 58.55004 32.45768 40009 ft 473 kts 313°
2026-04-25 09:58 58.59569 32.36703 40008 ft 472 kts 313°
2026-04-25 09:58 58.64124 32.27623 40009 ft 473 kts 313°
2026-04-25 09:59 58.68667 32.18529 40010 ft 473 kts 313°
2026-04-25 09:59 58.73211 32.09399 40009 ft 472 kts 313°
2026-04-25 10:00 58.77744 32.00252 40009 ft 472 kts 313°
2026-04-25 10:00 58.82282 31.91058 40006 ft 473 kts 312°
2026-04-25 10:01 58.86809 31.81849 40009 ft 473 kts 312°
2026-04-25 10:01 58.91338 31.72599 40008 ft 472 kts 312°
2026-04-25 10:02 58.95849 31.63347 40007 ft 472 kts 312°
2026-04-25 10:02 59.00357 31.54067 40009 ft 473 kts 312°
2026-04-25 10:03 59.04855 31.44774 40007 ft 474 kts 312°
2026-04-25 10:03 59.09332 31.35482 40009 ft 473 kts 312°
2026-04-25 10:04 59.13839 31.26098 40008 ft 473 kts 312°
2026-04-25 10:04 59.18334 31.16714 39697 ft 474 kts 312°
2026-04-25 10:05 59.20565 31.12039 39467 ft 467 kts 312°
2026-04-25 10:05 59.22792 31.07362 39180 ft 461 kts 312°
2026-04-25 10:05 59.24957 31.02806 38910 ft 455 kts 311°
2026-04-25 10:05 59.27067 30.98357 38643 ft 449 kts 311°
2026-04-25 10:06 59.29174 30.93907 38387 ft 443 kts 311°
2026-04-25 10:06 59.31254 30.89510 38117 ft 437 kts 313°
2026-04-25 10:06 59.33521 30.85601 37896 ft 431 kts 320°
2026-04-25 10:06 59.35875 30.82016 37626 ft 426 kts 321°
2026-04-25 10:07 59.38210 30.78471 37374 ft 421 kts 321°
2026-04-25 10:07 59.40512 30.74960 37103 ft 416 kts 321°
2026-04-25 10:07 59.42782 30.71481 36836 ft 411 kts 321°
2026-04-25 10:07 59.45023 30.68044 36565 ft 406 kts 321°
2026-04-25 10:08 59.47239 30.64644 36299 ft 402 kts 321°
2026-04-25 10:08 59.49431 30.61275 36030 ft 397 kts 320°
2026-04-25 10:08 59.51591 30.57947 35758 ft 393 kts 320°
2026-04-25 10:08 59.53730 30.54648 35489 ft 388 kts 320°
2026-04-25 10:09 59.55849 30.51373 35234 ft 385 kts 320°
2026-04-25 10:09 59.57954 30.48114 34974 ft 385 kts 320°
2026-04-25 10:09 59.60075 30.44824 34741 ft 389 kts 320°
2026-04-25 10:09 59.62203 30.41519 34496 ft 389 kts 320°
2026-04-25 10:10 59.64323 30.38222 34229 ft 388 kts 320°
2026-04-25 10:10 59.66445 30.34914 33834 ft 385 kts 320°
2026-04-25 10:10 59.68539 30.31646 33451 ft 381 kts 320°
2026-04-25 10:10 59.70611 30.28405 33068 ft 378 kts 320°
2026-04-25 10:11 59.72661 30.25194 32681 ft 374 kts 320°
2026-04-25 10:11 59.74696 30.22003 32303 ft 371 kts 320°
2026-04-25 10:11 59.76707 30.18842 31912 ft 368 kts 320°
2026-04-25 10:11 59.78705 30.15699 31538 ft 365 kts 320°
2026-04-25 10:12 59.80686 30.12576 31163 ft 361 kts 320°
2026-04-25 10:12 59.82807 30.09961 30811 ft 359 kts 338°
2026-04-25 10:12 59.87549 30.07160 30081 ft 353 kts 343°
2026-04-25 10:13 59.89910 30.05864 29708 ft 350 kts 342°
2026-04-25 10:13 59.92255 30.04496 29348 ft 353 kts 341°
2026-04-25 10:13 59.94602 30.03116 28994 ft 354 kts 342°
2026-04-25 10:13 59.96975 30.01754 28627 ft 355 kts 342°
2026-04-25 10:14 59.99353 30.00395 28281 ft 355 kts 342°
2026-04-25 10:14 60.01668 29.99057 27934 ft 356 kts 342°
2026-04-25 10:14 60.04059 29.97668 27563 ft 356 kts 342°
2026-04-25 10:14 60.06407 29.96305 27207 ft 357 kts 342°
2026-04-25 10:15 60.08832 29.94899 26849 ft 358 kts 342°
2026-04-25 10:15 60.11220 29.93511 26488 ft 358 kts 342°
2026-04-25 10:15 60.13619 29.92114 26129 ft 359 kts 342°
2026-04-25 10:15 60.16015 29.90716 25771 ft 359 kts 342°
2026-04-25 10:16 60.18425 29.89308 25411 ft 360 kts 342°
2026-04-25 10:16 60.20835 29.87899 25062 ft 360 kts 342°
2026-04-25 10:16 60.23240 29.86490 24828 ft 362 kts 342°
2026-04-25 10:16 60.25661 29.85068 24601 ft 363 kts 342°
2026-04-25 10:17 60.28085 29.83644 24364 ft 363 kts 342°
2026-04-25 10:17 60.30510 29.82217 24125 ft 363 kts 342°
2026-04-25 10:17 60.32922 29.80702 23888 ft 362 kts 334°
2026-04-25 10:17 60.35049 29.78061 23721 ft 360 kts 316°
2026-04-25 10:18 60.36885 29.74618 23498 ft 361 kts 314°
2026-04-25 10:18 60.38659 29.71056 23257 ft 360 kts 314°
2026-04-25 10:18 60.40433 29.67572 23042 ft 360 kts 315°
2026-04-25 10:18 60.42266 29.64082 22790 ft 361 kts 315°
2026-04-25 10:19 60.44086 29.60597 22552 ft 361 kts 315°
2026-04-25 10:19 60.45896 29.57072 22362 ft 360 kts 315°
2026-04-25 10:19 60.47706 29.53539 22169 ft 361 kts 315°
2026-04-25 10:19 60.49524 29.50007 21950 ft 362 kts 315°
2026-04-25 10:20 60.51344 29.46471 21713 ft 362 kts 315°
2026-04-25 10:20 60.53160 29.42928 21462 ft 362 kts 315°
2026-04-25 10:20 60.54975 29.39377 21227 ft 363 kts 315°
2026-04-25 10:20 60.56791 29.35822 20981 ft 363 kts 315°
2026-04-25 10:21 60.58609 29.32259 20739 ft 363 kts 315°
2026-04-25 10:21 60.60430 29.28684 20497 ft 364 kts 314°
2026-04-25 10:21 60.62249 29.25106 20258 ft 364 kts 314°
2026-04-25 10:21 60.64072 29.21514 20008 ft 364 kts 314°
2026-04-25 10:22 60.65755 29.17693 19790 ft 363 kts 301°
2026-04-25 10:22 60.66585 29.14658 19652 ft 363 kts 296°
2026-04-25 10:22 60.68062 29.08520 19325 ft 363 kts 295°
2026-04-25 10:22 60.69156 29.03873 19098 ft 363 kts 295°
2026-04-25 10:23 60.70279 28.99245 18858 ft 364 kts 296°
2026-04-25 10:23 60.71407 28.94621 18616 ft 364 kts 295°
2026-04-25 10:23 60.72524 28.89977 18378 ft 365 kts 295°
2026-04-25 10:23 60.73637 28.85315 18143 ft 364 kts 295°
2026-04-25 10:24 60.74752 28.80655 17892 ft 365 kts 295°
2026-04-25 10:24 60.75868 28.75995 17643 ft 365 kts 295°
2026-04-25 10:24 60.76984 28.71318 17423 ft 366 kts 295°
2026-04-25 10:24 60.78091 28.66662 17172 ft 366 kts 295°
2026-04-25 10:25 60.79204 28.61974 16923 ft 367 kts 295°
2026-04-25 10:25 60.80312 28.57297 16685 ft 367 kts 295°
2026-04-25 10:25 60.81426 28.52585 16434 ft 367 kts 295°
2026-04-25 10:25 60.82541 28.47861 16182 ft 368 kts 295°
2026-04-25 10:26 60.83653 28.43135 15950 ft 368 kts 295°
2026-04-25 10:26 60.84762 28.38414 15707 ft 369 kts 295°
2026-04-25 10:26 60.85675 28.33510 15477 ft 368 kts 281°
2026-04-25 10:26 60.85895 28.28291 15259 ft 368 kts 271°
2026-04-25 10:27 60.85923 28.23016 15019 ft 367 kts 270°
2026-04-25 10:27 60.85928 28.17863 14763 ft 356 kts 270°
2026-04-25 10:27 60.85953 28.12838 14497 ft 347 kts 271°
2026-04-25 10:27 60.85986 28.08017 14266 ft 338 kts 271°
2026-04-25 10:28 60.86011 28.03245 14022 ft 330 kts 270°
2026-04-25 10:28 60.86028 27.98591 13775 ft 323 kts 270°
2026-04-25 10:28 60.86044 27.94031 13530 ft 317 kts 270°
2026-04-25 10:28 60.86062 27.89555 13282 ft 311 kts 270°
2026-04-25 10:29 60.86077 27.85186 13029 ft 305 kts 270°
2026-04-25 10:29 60.86085 27.82321 12876 ft 302 kts 270°
2026-04-25 10:29 60.86097 27.78043 12632 ft 297 kts 270°
2026-04-25 10:29 60.86110 27.72403 12304 ft 292 kts 270°
2026-04-25 10:30 60.86116 27.69656 12147 ft 290 kts 270°
2026-04-25 10:30 60.86124 27.65585 11915 ft 286 kts 270°
2026-04-25 10:30 60.86131 27.61539 11660 ft 283 kts 270°
2026-04-25 10:30 60.86136 27.57542 11349 ft 282 kts 270°
2026-04-25 10:31 60.86139 27.53487 11040 ft 281 kts 270°
2026-04-25 10:31 60.86142 27.49498 10741 ft 281 kts 270°
2026-04-25 10:31 60.86143 27.45474 10438 ft 281 kts 270°
2026-04-25 10:31 60.86144 27.41480 10140 ft 280 kts 270°
2026-04-25 10:32 60.86143 27.37485 9843 ft 280 kts 270°
2026-04-25 10:32 60.86141 27.33498 9544 ft 279 kts 270°
2026-04-25 10:32 60.86138 27.29521 9237 ft 278 kts 270°
2026-04-25 10:32 60.86133 27.25563 8947 ft 277 kts 270°
2026-04-25 10:33 60.86128 27.21641 8651 ft 276 kts 270°
2026-04-25 10:33 60.86121 27.17721 8353 ft 275 kts 270°
2026-04-25 10:33 60.86136 27.13804 8047 ft 274 kts 275°
2026-04-25 10:33 60.86096 27.09930 7772 ft 272 kts 257°
2026-04-25 10:34 60.85372 27.06368 7493 ft 272 kts 238°
2026-04-25 10:34 60.84269 27.03225 7221 ft 272 kts 233°
2026-04-25 10:34 60.83072 27.00227 6929 ft 272 kts 231°
2026-04-25 10:34 60.81854 26.97271 6629 ft 272 kts 231°
2026-04-25 10:35 60.80634 26.94330 6348 ft 268 kts 231°
2026-04-25 10:35 60.79461 26.91519 6072 ft 251 kts 231°
2026-04-25 10:35 60.78354 26.88878 5817 ft 245 kts 231°
2026-04-25 10:35 60.77253 26.86240 5546 ft 244 kts 231°
2026-04-25 10:36 60.76149 26.83613 5262 ft 242 kts 231°
2026-04-25 10:36 60.75053 26.81008 5013 ft 241 kts 231°
2026-04-25 10:36 60.73957 26.78402 5009 ft 243 kts 231°
2026-04-25 10:36 60.72856 26.75790 5012 ft 244 kts 231°
2026-04-25 10:37 60.71758 26.73181 5011 ft 243 kts 231°
2026-04-25 10:37 60.70655 26.70563 5007 ft 242 kts 231°
2026-04-25 10:37 60.69555 26.67958 5009 ft 243 kts 231°
2026-04-25 10:37 60.68455 26.65352 5005 ft 243 kts 231°
2026-04-25 10:38 60.67353 26.62744 5006 ft 243 kts 231°
2026-04-25 10:38 60.66247 26.60132 5007 ft 243 kts 231°
2026-04-25 10:38 60.65148 26.57532 5007 ft 243 kts 231°
2026-04-25 10:38 60.64041 26.54919 5008 ft 242 kts 231°
2026-04-25 10:39 60.62933 26.52309 5006 ft 242 kts 231°
2026-04-25 10:39 60.61831 26.49707 4968 ft 244 kts 231°
2026-04-25 10:39 60.60731 26.47113 4841 ft 242 kts 231°
2026-04-25 10:39 60.59637 26.44538 4719 ft 239 kts 230°
2026-04-25 10:40 60.58544 26.41963 4597 ft 241 kts 231°
2026-04-25 10:40 60.57450 26.39395 4477 ft 237 kts 231°
2026-04-25 10:40 60.56370 26.36836 4342 ft 240 kts 231°
2026-04-25 10:40 60.55275 26.34256 4192 ft 239 kts 231°
2026-04-25 10:41 60.54188 26.31716 3981 ft 239 kts 231°
2026-04-25 10:41 60.53107 26.29192 3789 ft 238 kts 231°
2026-04-25 10:41 60.52018 26.26649 3579 ft 237 kts 231°
2026-04-25 10:41 60.50991 26.24061 3507 ft 235 kts 238°
2026-04-25 10:42 60.50137 26.21239 3509 ft 233 kts 241°
2026-04-25 10:42 60.49322 26.18351 3505 ft 238 kts 242°
2026-04-25 10:42 60.48528 26.15517 3505 ft 235 kts 242°
2026-04-25 10:42 60.47705 26.12588 3507 ft 235 kts 242°
2026-04-25 10:43 60.46874 26.09715 3505 ft 237 kts 238°
2026-04-25 10:43 60.45966 26.07095 3479 ft 215 kts 236°
2026-04-25 10:43 60.45084 26.04629 3483 ft 212 kts 236°
2026-04-25 10:43 60.44221 26.02230 3480 ft 211 kts 236°
2026-04-25 10:44 60.43356 25.99831 3506 ft 211 kts 236°
2026-04-25 10:44 60.42488 25.97431 3384 ft 209 kts 236°
2026-04-25 10:44 60.41621 25.95053 3251 ft 210 kts 236°
2026-04-25 10:44 60.40748 25.92674 2948 ft 210 kts 235°
2026-04-25 10:45 60.39958 25.90182 2468 ft 206 kts 242°
2026-04-25 10:45 60.39287 25.87597 2197 ft 207 kts 246°
2026-04-25 10:45 60.38705 25.85035 1938 ft 202 kts 248°
2026-04-25 10:45 60.38135 25.82455 2194 ft 202 kts 246°
2026-04-25 10:46 60.37496 25.79940 2636 ft 203 kts 243°
2026-04-25 10:46 60.36798 25.77410 2765 ft 206 kts 242°
2026-04-25 10:46 60.36044 25.74942 2744 ft 203 kts 237°
2026-04-25 10:46 60.35172 25.72647 2850 ft 206 kts 232°
2026-04-25 10:47 60.34619 25.70011 2950 ft 206 kts 267°
2026-04-25 10:47 60.34948 25.67213 3007 ft 209 kts 300°
2026-04-25 10:47 60.35847 25.64877 3008 ft 210 kts 309°
2026-04-25 10:47 60.36829 25.62690 3008 ft 211 kts 311°
2026-04-25 10:48 60.37833 25.60511 3002 ft 211 kts 311°
2026-04-25 10:48 60.38709 25.58153 3002 ft 209 kts 296°
2026-04-25 10:48 60.39303 25.55479 2998 ft 209 kts 290°
2026-04-25 10:48 60.39683 25.52670 2991 ft 207 kts 277°
2026-04-25 10:49 60.39722 25.49750 2993 ft 208 kts 265°
2026-04-25 10:49 60.39414 25.46909 3007 ft 210 kts 249°
2026-04-25 10:49 60.38516 25.44628 3015 ft 213 kts 218°
2026-04-25 10:49 60.37470 25.42581 3027 ft 211 kts 234°
2026-04-25 10:50 60.36616 25.40203 3002 ft 208 kts 236°
2026-04-25 10:50 60.35794 25.37763 3001 ft 209 kts 237°
2026-04-25 10:50 60.34981 25.35335 3010 ft 206 kts 237°
2026-04-25 10:50 60.34156 25.32880 3010 ft 211 kts 237°
2026-04-25 10:51 60.33335 25.30438 3006 ft 208 kts 237°
2026-04-25 10:51 60.32502 25.27989 3002 ft 212 kts 237°
2026-04-25 10:51 60.31677 25.25560 3008 ft 208 kts 237°
2026-04-25 10:51 60.30891 25.23100 3008 ft 210 kts 244°
2026-04-25 10:52 60.30273 25.20447 3006 ft 208 kts 248°
2026-04-25 10:52 60.29719 25.17755 3003 ft 210 kts 250°
2026-04-25 10:52 60.29317 25.14958 3009 ft 209 kts 257°
2026-04-25 10:52 60.29043 25.12114 3009 ft 210 kts 261°
2026-04-25 10:53 60.28940 25.09214 2759 ft 213 kts 276°
2026-04-25 10:53 60.29373 25.06376 1648 ft 221 kts 296°
2026-04-25 10:53 60.30056 25.03789 1637 ft 203 kts 306°
2026-04-25 10:53 60.31094 25.01735 1767 ft 214 kts 330°
2026-04-25 10:54 60.32406 25.00351 1740 ft 208 kts 347°
2026-04-25 10:54 60.33317 24.99862 2012 ft 205 kts 348°
2026-04-25 10:54 60.35264 24.99425 2430 ft 215 kts
2026-04-25 10:54 60.36775 24.99456 2554 ft 213 kts 358°
2026-04-25 10:55 60.38103 24.98540 3021 ft 208 kts 316°
2026-04-25 10:55 60.38730 24.95865 2566 ft 218 kts 269°
2026-04-25 10:55 60.38015 24.93287 1624 ft 222 kts 208°
2026-04-25 10:55 60.36568 24.93074 1168 ft 213 kts 162°
2026-04-25 10:56 60.35255 24.94422 849 ft 203 kts 149°
2026-04-25 10:56 60.34084 24.95713 521 ft 188 kts 158°
2026-04-25 10:56 60.32914 24.96625 235 ft 173 kts 155°
2026-04-25 10:56 60.31938 24.97608 160 ft 126 kts 154°
2026-04-25 10:57 60.31392 24.98146 163 ft 57 kts 153°
2026-04-25 10:57 60.31147 24.98395 164 ft 36 kts 153°
2026-04-25 10:57 60.30925 24.98594 161 ft 35 kts 154°
2026-04-25 10:57 60.30759 24.98769 165 ft 8 kts 127°
2026-04-25 10:58 60.30762 24.98890 163 ft 18 kts 74°
2026-04-25 10:58 60.30815 24.99130 158 ft 4 kts 34°
2026-04-25 10:58 60.30854 24.99138 158 ft 12 kts 349°
2026-04-25 10:58 60.30974 24.99077 158 ft 0 kts 13°
2026-04-25 10:59 60.30989 24.99095 159 ft 0 kts 38°
2026-04-25 10:59 60.30992 24.99107 159 ft 2 kts 59°
2026-04-25 10:59 60.30995 24.99121 159 ft 0 kts 65°